Back to catalog

KANOPUS-V 3

AliveScienceSSO
NORAD 43180·PAYLOAD·🇷🇺 Russia

Launched Feb 1, 2018 from Vostochny Cosmodrome

Loading…

Next Passes (next 24 hours)

TLE

FreshSource: Space-Track

Epoch: Sep 14, 2026, 15:32 UTC

1 43180U 18014A   26257.64762750  .00001576  00000-0  71104-4 0  9995
2 43180  97.3475 161.2718 0001773  87.9418 272.2021 15.22445097478334

Track KANOPUS-V 3 in real time with AllMySat

Download on the App Store